Date,TemperatureHighF,TemperatureAvgF,TemperatureLowF,DewpointHighF,DewpointAvgF,DewpointLowF,HumidityHigh,HumidityAvg,HumidityLow,PressureMaxIn,PressureMinIn,WindSpeedMaxMPH,WindSpeedAvgMPH,GustSpeedMaxMPH,PrecipitationSumIn
2013-1-1,34.9,32.0,27.3,15.8,12.7,11.2,55,46,40,29.83,29.26,6,2,7,0.00
2013-1-2,29.7,25.5,22.1,14.3,12.7,10.5,67,58,50,29.67,29.28,4,2,4,0.00
2013-1-3,30.9,28.3,23.5,13.9,9.8,4.1,53,46,40,29.75,29.65,4,2,4,0.00
2013-1-4,26.6,20.2,15.3,6.3,3.8,0.8,60,49,40,29.91,29.72,3,1,3,0.00
2013-1-5,20.5,17.5,14.9,9.0,4.9,1.3,63,57,51,29.91,29.48,2,1,4,0.00
2013-1-6,19.9,17.0,12.6,7.7,4.1,1.5,66,57,49,29.49,29.27,3,1,3,0.00
2013-1-7,19.6,11.2,-0.8,8.6,0.6,-11.8,68,61,54,29.68,29.25,3,1,3,0.00
2013-1-8,3.9,-1.8,-5.1,-5.4,-13.0,-16.1,65,57,55,30.22,29.58,2,0,2,0.00
2013-1-9,5.9,1.9,-3.1,-4.2,-8.6,-14.6,63,60,56,30.22,29.94,0,0,0,0.00
2013-1-10,14.7,9.5,4.1,6.4,0.4,-5.5,71,65,62,30.15,29.94,0,0,0,0.00
2013-1-11,14.7,12.8,9.9,7.1,5.1,0.9,72,70,66,30.25,29.93,0,0,0,0.00
2013-1-12,17.2,14.7,13.6,9.8,7.1,6.1,72,71,70,30.25,30.17,0,0,0,0.00
2013-1-13,36.3,33.7,31.5,30.4,29.3,27.8,88,84,74,29.81,29.62,3,1,3,0.25
2013-1-14,38.3,34.0,26.4,33.1,29.1,20.1,88,82,75,29.92,29.34,6,1,9,0.06
2013-1-15,26.1,13.1,8.8,20.2,5.3,0.2,78,70,66,30.28,29.93,0,0,0,0.06
2013-1-16,14.0,10.6,5.9,4.8,1.9,-2.5,73,67,60,30.29,29.90,0,0,0,0.00
2013-1-17,13.6,3.6,-9.9,5.4,-9.6,-25.6,70,53,42,30.22,29.87,0,0,0,0.00
2013-1-18,0.5,-6.3,-11.4,-16.4,-21.3,-26.8,52,46,40,30.47,30.22,0,0,0,0.00
2013-1-19,9.3,4.7,-4.0,-8.3,-14.7,-19.8,49,40,31,30.47,30.16,0,0,0,0.00
2013-1-20,10.4,7.5,2.7,0.7,-4.5,-14.1,65,57,43,30.17,30.08,0,0,0,0.00
2013-1-21,8.4,5.9,1.8,-1.1,-5.1,-9.1,64,59,51,30.21,30.09,0,0,0,0.00
2013-1-22,14.4,9.0,4.3,-1.9,-6.2,-9.4,60,50,43,30.09,29.82,0,0,0,0.00
2013-1-23,8.8,5.2,-0.2,-7.4,-12.8,-22.7,47,43,33,29.82,29.70,8,2,11,0.01
2013-1-24,-0.4,-5.7,-9.4,-22.4,-28.9,-35.0,34,31,26,29.90,29.75,8,4,10,0.01
2013-1-25,-6.7,-17.1,-27.2,-23.7,-36.2,-44.8,42,35,28,30.05,29.90,4,1,5,0.00
2013-1-26,-19.8,-25.8,-30.3,-36.1,-42.4,-48.0,42,38,34,30.18,30.05,0,0,0,0.00
2013-1-27,-22.2,-33.6,-37.7,-37.7,-52.5,-57.9,41,31,26,30.60,30.18,0,0,0,0.00
2013-1-28,-5.1,-20.5,-36.4,-23.1,-38.0,-56.8,47,37,27,30.63,30.12,4,1,4,0.00
2013-1-29,-3.6,-6.9,-10.5,-22.0,-28.4,-33.8,46,34,26,30.11,29.95,4,1,8,0.00
2013-1-30,8.1,0.5,-7.6,-3.2,-12.2,-22.1,60,53,46,30.00,29.75,4,0,4,0.00
2013-1-31,11.8,7.6,5.0,1.7,-2.9,-5.7,64,61,58,30.17,29.78,2,0,4,0.00